Regional Weather Roundup
Issued by NWS

Home | Current Version | Previous Version | Graphics & Text | Print | Product List | Glossary On
Versions: 1 2 3 4 5 6 7 8 9 10 11 12 13 14 15 16 17 18 19 20 21 22 23 24 25 26 27 28 29 30 31 32 33 34 35 36 37 38 39 40 41 42 43 44 45 46 47 48 49 50
000
ASUS43 KBIS 252210
RWRND
NORTH DAKOTA REGIONAL WEATHER ROUNDUP
NATIONAL WEATHER SERVICE EASTERN NORTH DAKOTA/GRAND FORKS ND
500 PM CDT FRI MAY 25 2018

  NOTE: "FAIR" INDICATES FEW OR NO CLOUDS BELOW 12,000 FEET WITH NO
  SIGNIFICANT WEATHER AND/OR OBSTRUCTIONS TO VISIBILITY.

NDZ001>003-009>011-017-252300-
...NORTHWEST NORTH DAKOTA...

CITY           SKY/WX    TMP DP  RH WIND       PRES   REMARKS
WILLISTON      FAIR      87  47  24 NW24      29.73F
MINOT          FAIR      91  44  19 W22G32    29.65F
MINOT AFB      FAIR      89  45  21 W22G31    29.63F
$$

NDZ018>021-031>035-040>046-252300-
...SOUTHWEST NORTH DAKOTA...

CITY           SKY/WX    TMP DP  RH WIND       PRES   REMARKS
BISMARCK       FAIR      91  49  23 W17G28    29.70F
DICKINSON      FAIR      87  47  24 W16G28    29.77F
GARRISON         N/A     88  45  22 NW29G38   29.69F
HETTINGER      FAIR      84  47  27 W18G25    29.83F
$$

NDZ004>008-012>016-024-026-027-054-252300-
...NORTHEAST NORTH DAKOTA...

CITY           SKY/WX    TMP DP  RH WIND       PRES   REMARKS
GRAND FORKS    PTSUNNY   92  50  23 W10       29.55F
GRAND FORKS AF PTSUNNY   91  51  25 W16       29.56F
DEVILS LAKE    FAIR      88  51  28 W17G24    29.61F
$$

NDZ022-023-025-028>030-036>039-047>053-252300-
...SOUTHEAST NORTH DAKOTA...

CITY           SKY/WX    TMP DP  RH WIND       PRES   REMARKS
JAMESTOWN      FAIR      86  52  30 W22       29.66F THUNDER
FARGO          FAIR      92  48  22 W10G24    29.60F
WAHPETON       FAIR      91  43  18 W16       29.64F
$$



USA.gov is the U.S. government's official web portal to all federal, state and local government web resources and services.